When you browse on this site, cookies collect data to enhance your experience and personalize the content and advertising you see.
Visit our Privacy Policy to learn more. By continuing to use the site, you agree to this use of cookies and data.
EN

Hourly Weather Morpeth

Today, 12 July, Sunday

Time Temperature Precipitation Wind Pressure Humidity
00:00 +8°C° 0 mm 4 mps 765 mmHg 89%
01:00 +8°C° 0 mm 4 mps 764 mmHg 89%
02:00 +7°C° 0 mm 4 mps 764 mmHg 89%
03:00 +7°C° 0 mm 4 mps 764 mmHg 89%
04:00 +8°C° 0 mm 4 mps 764 mmHg 87%
05:00 +10°C° 0 mm 4 mps 764 mmHg 85%
06:00 +11°C° 0 mm 4 mps 764 mmHg 83%
07:00 +12°C° 0 mm 4 mps 764 mmHg 79%
08:00 +13°C° 0 mm 4 mps 764 mmHg 75%
09:00 +15°C° 0 mm 4 mps 764 mmHg 71%
10:00 +15°C° 0 mm 4 mps 764 mmHg 70%
11:00 +17°C° 0 mm 4 mps 764 mmHg 68%
12:00 +18°C° 0 mm 4 mps 764 mmHg 66%
13:00 +18°C° 0 mm 4 mps 764 mmHg 66%
14:00 +19°C° 0 mm 4 mps 764 mmHg 65%
15:00 +19°C° 0 mm 4 mps 763 mmHg 65%
16:00 +18°C° 0 mm 4 mps 763 mmHg 66%
17:00 +18°C° 0 mm 4 mps 763 mmHg 68%
18:00 +17°C° 0 mm 3 mps 763 mmHg 69%
19:00 +16°C° 0 mm 3 mps 763 mmHg 72%
20:00 +13°C° 0 mm 3 mps 762 mmHg 75%
21:00 +12°C° 0 mm 3 mps 762 mmHg 79%
22:00 +12°C° 0 mm 3 mps 762 mmHg 77%
23:00 +12°C° 0 mm 3 mps 762 mmHg 76%

Tomorrow, 13 July, Monday

Time Temperature Precipitation Wind Pressure Humidity
00:00 +12°C° 0 mm 3 mps 761 mmHg 75%
01:00 +12°C° 0.1 mm 3 mps 761 mmHg 77%
02:00 +12°C° 0.1 mm 3 mps 760 mmHg 78%
03:00 +12°C° 0.1 mm 3 mps 760 mmHg 80%
04:00 +13°C° 0 mm 4 mps 759 mmHg 82%
05:00 +14°C° 0 mm 4 mps 759 mmHg 84%
06:00 +14°C° 0 mm 4 mps 759 mmHg 86%
07:00 +15°C° 0 mm 4 mps 759 mmHg 86%
08:00 +15°C° 0 mm 4 mps 758 mmHg 87%
09:00 +15°C° 0 mm 4 mps 758 mmHg 88%
10:00 +16°C° 0.1 mm 5 mps 758 mmHg 83%
11:00 +17°C° 0.1 mm 6 mps 758 mmHg 79%
12:00 +19°C° 0.1 mm 6 mps 757 mmHg 74%
13:00 +19°C° 0.1 mm 6 mps 757 mmHg 74%
14:00 +19°C° 0.1 mm 6 mps 757 mmHg 73%
15:00 +19°C° 0.1 mm 6 mps 756 mmHg 72%
16:00 +19°C° 0 mm 6 mps 756 mmHg 74%
17:00 +17°C° 0 mm 6 mps 756 mmHg 77%
18:00 +17°C° 0 mm 6 mps 756 mmHg 79%
19:00 +16°C° 0 mm 5 mps 756 mmHg 83%
20:00 +14°C° 0 mm 5 mps 756 mmHg 87%
21:00 +13°C° 0 mm 5 mps 756 mmHg 91%
22:00 +12°C° 0 mm 5 mps 756 mmHg 89%
23:00 +10°C° 0 mm 5 mps 756 mmHg 88%

Day after tomorrow, 14 July, Tuesday

Time Temperature Precipitation Wind Pressure Humidity
00:00 +10°C° 0 mm 6 mps 756 mmHg 87%
01:00 +9°C° 0 mm 6 mps 756 mmHg 87%
02:00 +9°C° 0 mm 6 mps 756 mmHg 86%
03:00 +9°C° 0 mm 6 mps 756 mmHg 85%
04:00 +9°C° 0 mm 6 mps 756 mmHg 85%
05:00 +10°C° 0 mm 5 mps 756 mmHg 84%
06:00 +10°C° 0 mm 5 mps 756 mmHg 83%
07:00 +12°C° 0 mm 5 mps 756 mmHg 80%
08:00 +13°C° 0 mm 5 mps 756 mmHg 77%
09:00 +14°C° 0 mm 5 mps 756 mmHg 75%
10:00 +15°C° 0.1 mm 4 mps 756 mmHg 72%
11:00 +17°C° 0.1 mm 4 mps 756 mmHg 70%
12:00 +17°C° 0.1 mm 3 mps 756 mmHg 68%
13:00 +17°C° 0.1 mm 3 mps 756 mmHg 69%
14:00 +17°C° 0.1 mm 3 mps 756 mmHg 71%
15:00 +17°C° 0.1 mm 3 mps 756 mmHg 73%
16:00 +15°C° 0.1 mm 4 mps 755 mmHg 77%
17:00 +14°C° 0.1 mm 5 mps 755 mmHg 81%
18:00 +13°C° 0.1 mm 5 mps 755 mmHg 85%
19:00 +13°C° 0.1 mm 5 mps 755 mmHg 87%
20:00 +12°C° 0.1 mm 4 mps 755 mmHg 89%
21:00 +12°C° 0.1 mm 4 mps 754 mmHg 91%
22:00 +12°C° 0.2 mm 4 mps 754 mmHg 91%
23:00 +12°C° 0.2 mm 3 mps 754 mmHg 92%

15 July, Wednesday

Time Temperature Precipitation Wind Pressure Humidity
00:00 +12°C° 0.2 mm 3 mps 754 mmHg 92%
01:00 +12°C° 0.3 mm 3 mps 753 mmHg 93%
02:00 +13°C° 0.3 mm 4 mps 753 mmHg 94%
03:00 +13°C° 0.3 mm 4 mps 753 mmHg 95%
04:00 +13°C° 0.3 mm 4 mps 753 mmHg 95%
05:00 +13°C° 0.3 mm 4 mps 752 mmHg 94%
06:00 +13°C° 0.3 mm 5 mps 752 mmHg 94%
07:00 +14°C° 0.1 mm 5 mps 753 mmHg 93%
08:00 +14°C° 0.1 mm 5 mps 753 mmHg 91%
09:00 +15°C° 0.1 mm 5 mps 753 mmHg 90%
10:00 +15°C° 0.2 mm 5 mps 753 mmHg 88%
11:00 +17°C° 0.2 mm 4 mps 753 mmHg 85%
12:00 +18°C° 0.2 mm 4 mps 754 mmHg 83%
13:00 +18°C° 0.2 mm 4 mps 754 mmHg 83%
14:00 +18°C° 0.2 mm 3 mps 754 mmHg 84%
15:00 +18°C° 0.2 mm 3 mps 755 mmHg 84%
16:00 +18°C° 0.1 mm 3 mps 755 mmHg 83%
17:00 +18°C° 0.1 mm 2 mps 755 mmHg 83%
18:00 +18°C° 0.1 mm 2 mps 756 mmHg 82%
19:00 +17°C° 0 mm 2 mps 756 mmHg 85%
20:00 +16°C° 0 mm 1 mps 757 mmHg 87%
21:00 +15°C° 0 mm 1 mps 757 mmHg 90%
22:00 +14°C° 0 mm 1 mps 757 mmHg 91%
23:00 +14°C° 0 mm 1 mps 757 mmHg 91%

16 July, Thursday

Time Temperature Precipitation Wind Pressure Humidity
00:00 +13°C° 0 mm 1 mps 758 mmHg 92%
01:00 +13°C° 0 mm 1 mps 758 mmHg 92%
02:00 +13°C° 0 mm 1 mps 758 mmHg 93%
03:00 +12°C° 0 mm 1 mps 758 mmHg 93%
04:00 +13°C° 0 mm 1 mps 758 mmHg 92%
05:00 +13°C° 0 mm 1 mps 759 mmHg 91%
06:00 +14°C° 0 mm 2 mps 759 mmHg 89%
07:00 +15°C° 0 mm 1 mps 759 mmHg 86%
08:00 +16°C° 0 mm 1 mps 759 mmHg 83%
09:00 +19°C° 0 mm 1 mps 759 mmHg 79%
10:00 +18°C° 0 mm 2 mps 759 mmHg 78%
11:00 +19°C° 0 mm 2 mps 759 mmHg 77%
12:00 +19°C° 0 mm 3 mps 759 mmHg 75%
13:00 +19°C° 0 mm 3 mps 759 mmHg 75%
14:00 +19°C° 0 mm 3 mps 759 mmHg 75%
15:00 +19°C° 0 mm 4 mps 759 mmHg 75%
16:00 +19°C° 0 mm 4 mps 759 mmHg 78%
17:00 +19°C° 0 mm 4 mps 759 mmHg 80%
18:00 +18°C° 0 mm 4 mps 759 mmHg 83%
19:00 +18°C° 0 mm 4 mps 759 mmHg 85%
20:00 +17°C° 0 mm 4 mps 759 mmHg 88%
21:00 +15°C° 0 mm 4 mps 759 mmHg 91%
22:00 +15°C° 0 mm 4 mps 759 mmHg 91%
23:00 +14°C° 0 mm 4 mps 759 mmHg 91%

17 July, Friday

Time Temperature Precipitation Wind Pressure Humidity
00:00 +14°C° 0 mm 4 mps 759 mmHg 92%
01:00 +14°C° 0 mm 4 mps 758 mmHg 91%
02:00 +15°C° 0 mm 4 mps 758 mmHg 91%
03:00 +15°C° 0 mm 4 mps 758 mmHg 91%
04:00 +15°C° 0 mm 4 mps 758 mmHg 90%
05:00 +15°C° 0 mm 4 mps 758 mmHg 88%
06:00 +17°C° 0 mm 4 mps 758 mmHg 87%
07:00 +17°C° 0 mm 4 mps 759 mmHg 83%
08:00 +18°C° 0 mm 4 mps 759 mmHg 78%
09:00 +19°C° 0 mm 5 mps 759 mmHg 73%
10:00 +19°C° 0 mm 5 mps 759 mmHg 70%
11:00 +20°C° 0 mm 5 mps 759 mmHg 67%
12:00 +20°C° 0 mm 5 mps 760 mmHg 64%
13:00 +20°C° 0 mm 5 mps 760 mmHg 64%
14:00 +20°C° 0 mm 4 mps 760 mmHg 63%
15:00 +20°C° 0 mm 4 mps 760 mmHg 63%
16:00 +19°C° 0 mm 4 mps 760 mmHg 67%
17:00 +18°C° 0 mm 3 mps 760 mmHg 71%
18:00 +17°C° 0 mm 3 mps 760 mmHg 75%
19:00 +16°C° 0 mm 2 mps 760 mmHg 79%
20:00 +14°C° 0 mm 2 mps 760 mmHg 83%
21:00 +13°C° 0 mm 2 mps 760 mmHg 87%
22:00 +12°C° 0 mm 2 mps 760 mmHg 87%
23:00 +12°C° 0 mm 2 mps 760 mmHg 87%
Show more